| time (UTC) | temp F | wind direction | speed MPH | gust MPH | rain 1hr in | rain 24hr in | rain mn in | humidity % | barometer mb |
| 20260507150529 | 52 | 179 | 1.0 | 4.0 | 0.00 | 0.00 | 0.00 | 74 | 1024.8 |
| 20260507150037 | 53 | 179 | 1.0 | 4.0 | 0.00 | 0.00 | 0.00 | 74 | 1024.8 |
| 20260507145526 | 52 | 179 | 1.0 | 4.0 | 0.00 | 0.00 | 0.00 | 74 | 1024.8 |
| 20260507145029 | 52 | 179 | 1.0 | 4.0 | 0.00 | 0.00 | 0.00 | 73 | 1024.7 |
| 20260507144545 | 53 | 0 | 0.0 | 0.0 | 0.00 | 0.00 | 0.00 | 72 | 1024.7 |
| 20260507144025 | 53 | 0 | 0.0 | 0.0 | 0.00 | 0.00 | 0.00 | 73 | 1024.8 |
| 20260507143526 | 53 | 0 | 0.0 | 0.0 | 0.00 | 0.00 | 0.00 | 74 | 1024.8 |
| 20260507143048 | 53 | 0 | 0.0 | 0.0 | 0.00 | 0.00 | 0.00 | 72 | 1024.7 |
| 20260507142526 | 53 | 0 | 0.0 | 0.0 | 0.00 | 0.00 | 0.00 | 74 | 1024.7 |
| 20260507142026 | 52 | 0 | 0.0 | 0.0 | 0.00 | 0.00 | 0.00 | 74 | 1024.7 |
| 20260507141545 | 51 | 0 | 0.0 | 0.0 | 0.00 | 0.00 | 0.00 | 77 | 1024.7 |
| 20260507141027 | 50 | 0 | 0.0 | 0.0 | 0.00 | 0.00 | 0.00 | 77 | 1024.6 |
| 20260507140527 | 49 | 0 | 0.0 | 0.0 | 0.00 | 0.00 | 0.00 | 80 | 1024.6 |
| 20260507140043 | 48 | 0 | 0.0 | 0.0 | 0.00 | 0.00 | 0.00 | 80 | 1024.6 |
| 20260507135524 | 47 | 0 | 0.0 | 0.0 | 0.00 | 0.00 | 0.00 | 81 | 1024.6 |
| 20260507135024 | 47 | 0 | 0.0 | 0.0 | 0.00 | 0.00 | 0.00 | 82 | 1024.5 |
| 20260507134538 | 46 | 0 | 0.0 | 0.0 | 0.00 | 0.00 | 0.00 | 83 | 1024.5 |
| 20260507134025 | 46 | 0 | 0.0 | 0.0 | 0.00 | 0.00 | 0.00 | 84 | 1024.4 |
| 20260507133526 | 46 | 0 | 0.0 | 0.0 | 0.00 | 0.00 | 0.00 | 84 | 1024.4 |
| 20260507133104 | 45 | 0 | 0.0 | 0.0 | 0.00 | 0.00 | 0.00 | 84 | 1024.3 |
| 20260507132525 | 46 | 0 | 0.0 | 0.0 | 0.00 | 0.00 | 0.00 | 83 | 1024.3 |
| 20260507132025 | 46 | 0 | 0.0 | 0.0 | 0.00 | 0.00 | 0.00 | 83 | 1024.3 |
| 20260507131544 | 46 | 0 | 0.0 | 0.0 | 0.00 | 0.00 | 0.00 | 83 | 1024.2 |
| 20260507131027 | 46 | 0 | 0.0 | 0.0 | 0.00 | 0.00 | 0.00 | 82 | 1024.2 |
| 20260507130526 | 46 | 0 | 0.0 | 0.0 | 0.00 | 0.00 | 0.00 | 82 | 1024.2 |
| 20260507130051 | 46 | 0 | 0.0 | 0.0 | 0.00 | 0.00 | 0.00 | 82 | 1024.2 |
| 20260507125525 | 46 | 0 | 0.0 | 0.0 | 0.00 | 0.01 | 0.00 | 82 | 1024.2 |
| 20260507125025 | 46 | 0 | 0.0 | 0.0 | 0.00 | 0.01 | 0.00 | 80 | 1024.2 |
| 20260507124557 | 46 | 0 | 0.0 | 0.0 | 0.00 | 0.01 | 0.00 | 79 | 1024.1 |
| 20260507124026 | 46 | 0 | 0.0 | 0.0 | 0.00 | 0.01 | 0.00 | 80 | 1024.1 |
| 20260507123526 | 46 | 0 | 0.0 | 0.0 | 0.00 | 0.01 | 0.00 | 80 | 1024.2 |
| 20260507123039 | 46 | 0 | 0.0 | 0.0 | 0.00 | 0.01 | 0.00 | 80 | 1024.1 |
| 20260507122525 | 47 | 0 | 0.0 | 0.0 | 0.00 | 0.01 | 0.00 | 79 | 1024.1 |
| 20260507122026 | 47 | 0 | 0.0 | 0.0 | 0.00 | 0.01 | 0.00 | 79 | 1024.2 |
| 20260507121544 | 47 | 0 | 0.0 | 0.0 | 0.00 | 0.01 | 0.00 | 79 | 1024.2 |
| 20260507121027 | 47 | 0 | 0.0 | 0.0 | 0.00 | 0.01 | 0.00 | 79 | 1024.2 |
| 20260507120529 | 47 | 0 | 0.0 | 0.0 | 0.00 | 0.01 | 0.00 | 77 | 1024.1 |
| 20260507120043 | 47 | 0 | 0.0 | 0.0 | 0.00 | 0.01 | 0.00 | 77 | 1024.1 |
| 20260507115526 | 48 | 0 | 0.0 | 0.0 | 0.00 | 0.01 | 0.00 | 76 | 1024.1 |
| 20260507115031 | 48 | 0 | 0.0 | 0.0 | 0.00 | 0.01 | 0.00 | 76 | 1024.0 |
| 20260507114558 | 47 | 0 | 0.0 | 0.0 | 0.00 | 0.01 | 0.00 | 77 | 1024.0 |
| 20260507114024 | 47 | 0 | 0.0 | 0.0 | 0.00 | 0.01 | 0.00 | 77 | 1024.0 |
| 20260507113524 | 47 | 0 | 0.0 | 0.0 | 0.00 | 0.01 | 0.00 | 77 | 1024.0 |
| 20260507113039 | 47 | 0 | 0.0 | 0.0 | 0.00 | 0.01 | 0.00 | 77 | 1024.1 |
| 20260507112524 | 47 | 0 | 0.0 | 0.0 | 0.00 | 0.01 | 0.00 | 78 | 1024.0 |
| 20260507112026 | 47 | 0 | 0.0 | 0.0 | 0.00 | 0.01 | 0.00 | 78 | 1024.2 |
| 20260507111545 | 47 | 0 | 0.0 | 0.0 | 0.00 | 0.01 | 0.00 | 79 | 1024.2 |
| 20260507111026 | 47 | 0 | 0.0 | 0.0 | 0.00 | 0.01 | 0.00 | 79 | 1024.2 |
| 20260507110527 | 48 | 0 | 0.0 | 0.0 | 0.00 | 0.01 | 0.00 | 80 | 1024.2 |
| 20260507110046 | 48 | 0 | 0.0 | 0.0 | 0.00 | 0.01 | 0.00 | 79 | 1024.3 |
| 20260507105524 | 48 | 0 | 0.0 | 0.0 | 0.00 | 0.01 | 0.00 | 79 | 1024.2 |
| 20260507105026 | 48 | 0 | 0.0 | 0.0 | 0.00 | 0.01 | 0.00 | 78 | 1024.3 |
| 20260507104551 | 48 | 0 | 0.0 | 0.0 | 0.00 | 0.01 | 0.00 | 77 | 1024.2 |
| 20260507104029 | 48 | 0 | 0.0 | 0.0 | 0.00 | 0.01 | 0.00 | 77 | 1024.3 |
| 20260507103527 | 48 | 0 | 0.0 | 0.0 | 0.00 | 0.01 | 0.00 | 77 | 1024.4 |
| 20260507103040 | 48 | 0 | 0.0 | 0.0 | 0.00 | 0.01 | 0.00 | 76 | 1024.4 |
| 20260507102524 | 48 | 0 | 0.0 | 0.0 | 0.00 | 0.01 | 0.00 | 77 | 1024.5 |
| 20260507102025 | 48 | 0 | 0.0 | 0.0 | 0.00 | 0.01 | 0.00 | 77 | 1024.5 |
| 20260507101541 | 48 | 0 | 0.0 | 0.0 | 0.00 | 0.01 | 0.00 | 77 | 1024.4 |
| 20260507101023 | 49 | 0 | 0.0 | 0.0 | 0.00 | 0.01 | 0.00 | 76 | 1024.5 |
| 20260507100524 | 49 | 0 | 0.0 | 0.0 | 0.00 | 0.01 | 0.00 | 76 | 1024.5 |
| 20260507100048 | 49 | 0 | 0.0 | 0.0 | 0.00 | 0.01 | 0.00 | 76 | 1024.4 |
| 20260507095526 | 49 | 0 | 0.0 | 1.0 | 0.00 | 0.01 | 0.00 | 76 | 1024.4 |
| 20260507095026 | 49 | 0 | 0.0 | 2.0 | 0.00 | 0.01 | 0.00 | 76 | 1024.5 |
| 20260507094546 | 49 | 0 | 0.0 | 2.0 | 0.00 | 0.01 | 0.00 | 76 | 1024.5 |
| 20260507094025 | 49 | 179 | 1.0 | 2.0 | 0.00 | 0.01 | 0.00 | 75 | 1024.5 |
| 20260507093525 | 49 | 179 | 1.0 | 3.0 | 0.00 | 0.01 | 0.00 | 75 | 1024.6 |
| 20260507093045 | 49 | 179 | 1.0 | 3.0 | 0.00 | 0.01 | 0.00 | 75 | 1024.7 |
| 20260507092526 | 49 | 179 | 2.0 | 3.0 | 0.00 | 0.01 | 0.00 | 75 | 1024.6 |
| 20260507092026 | 49 | 179 | 0.0 | 3.0 | 0.00 | 0.01 | 0.00 | 75 | 1024.7 |
| 20260507091543 | 49 | 0 | 0.0 | 2.0 | 0.00 | 0.01 | 0.00 | 75 | 1024.7 |
| 20260507091024 | 49 | 179 | 1.0 | 2.0 | 0.00 | 0.01 | 0.00 | 74 | 1024.6 |
| 20260507090525 | 49 | 179 | 1.0 | 2.0 | 0.00 | 0.01 | 0.00 | 74 | 1024.8 |
| 20260507090040 | 49 | 179 | 1.0 | 2.0 | 0.00 | 0.01 | 0.00 | 74 | 1024.7 |
| 20260507085524 | 49 | 179 | 1.0 | 2.0 | 0.00 | 0.01 | 0.00 | 74 | 1024.9 |
| 20260507085024 | 49 | 179 | 1.0 | 2.0 | 0.00 | 0.01 | 0.00 | 74 | 1024.9 |
| 20260507084537 | 49 | 179 | 1.0 | 2.0 | 0.00 | 0.01 | 0.00 | 74 | 1024.9 |
| 20260507084025 | 49 | 179 | 1.0 | 3.0 | 0.00 | 0.01 | 0.00 | 73 | 1025.0 |
| 20260507083527 | 49 | 179 | 1.0 | 3.0 | 0.00 | 0.01 | 0.00 | 73 | 1025.0 |
| 20260507083044 | 49 | 179 | 1.0 | 2.0 | 0.00 | 0.01 | 0.00 | 73 | 1024.9 |
| 20260507082524 | 50 | 179 | 1.0 | 3.0 | 0.00 | 0.01 | 0.00 | 73 | 1025.0 |
| 20260507082025 | 50 | 179 | 1.0 | 3.0 | 0.00 | 0.01 | 0.00 | 72 | 1025.0 |
| 20260507081544 | 50 | 179 | 2.0 | 3.0 | 0.00 | 0.01 | 0.00 | 72 | 1025.0 |
| 20260507081026 | 50 | 179 | 1.0 | 3.0 | 0.00 | 0.01 | 0.00 | 71 | 1025.1 |
| 20260507080527 | 50 | 179 | 1.0 | 3.0 | 0.00 | 0.01 | 0.00 | 71 | 1025.0 |
| 20260507080042 | 50 | 179 | 1.0 | 3.0 | 0.00 | 0.01 | 0.00 | 71 | 1025.1 |
| 20260507075526 | 50 | 179 | 1.0 | 3.0 | 0.00 | 0.01 | 0.00 | 71 | 1025.1 |
| 20260507075024 | 50 | 179 | 2.0 | 3.0 | 0.00 | 0.01 | 0.00 | 71 | 1025.0 |
| 20260507074545 | 50 | 179 | 1.0 | 2.0 | 0.00 | 0.01 | 0.00 | 71 | 1025.0 |
| 20260507074023 | 50 | 179 | 1.0 | 2.0 | 0.00 | 0.01 | 0.00 | 70 | 1025.1 |
| 20260507073525 | 50 | 179 | 1.0 | 4.0 | 0.00 | 0.01 | 0.00 | 70 | 1025.0 |
| 20260507073043 | 50 | 179 | 1.0 | 4.0 | 0.00 | 0.01 | 0.00 | 69 | 1025.1 |
| 20260507072525 | 50 | 179 | 2.0 | 4.0 | 0.00 | 0.01 | 0.00 | 69 | 1025.1 |
| 20260507072024 | 51 | 179 | 1.0 | 3.0 | 0.00 | 0.01 | 0.00 | 69 | 1025.1 |
| 20260507071550 | 51 | 179 | 1.0 | 3.0 | 0.00 | 0.01 | 0.00 | 69 | 1025.1 |
| 20260507071026 | 51 | 179 | 1.0 | 3.0 | 0.00 | 0.01 | 0.00 | 68 | 1025.1 |
| 20260507070526 | 51 | 179 | 1.0 | 3.0 | 0.00 | 0.01 | 0.00 | 68 | 1025.2 |
| 20260507070059 | 51 | 179 | 2.0 | 3.0 | 0.00 | 0.01 | 0.00 | 68 | 1025.1 |
| 20260507065525 | 51 | 179 | 1.0 | 3.0 | 0.00 | 0.01 | 0.01 | 65 | 1025.2 |
| 20260507065025 | 51 | 179 | 1.0 | 3.0 | 0.00 | 0.01 | 0.01 | 67 | 1025.2 |
| 20260507064543 | 51 | 179 | 0.0 | 2.0 | 0.00 | 0.01 | 0.01 | 66 | 1025.1 |
| 20260507064026 | 51 | 179 | 1.0 | 3.0 | 0.00 | 0.01 | 0.01 | 66 | 1025.0 |
| 20260507063526 | 51 | 179 | 1.0 | 3.0 | 0.00 | 0.01 | 0.01 | 65 | 1025.1 |
| 20260507063055 | 51 | 179 | 1.0 | 3.0 | 0.00 | 0.01 | 0.01 | 65 | 1025.1 |
| 20260507062526 | 51 | 179 | 1.0 | 3.0 | 0.00 | 0.01 | 0.01 | 65 | 1025.0 |
| 20260507062026 | 51 | 179 | 1.0 | 4.0 | 0.00 | 0.01 | 0.01 | 65 | 1025.0 |
| 20260507061546 | 51 | 179 | 2.0 | 4.0 | 0.00 | 0.01 | 0.01 | 65 | 1025.0 |
| 20260507061023 | 51 | 179 | 2.0 | 4.0 | 0.00 | 0.01 | 0.01 | 64 | 1025.0 |
| 20260507060525 | 51 | 179 | 1.0 | 3.0 | 0.00 | 0.01 | 0.01 | 65 | 1025.0 |
| 20260507060044 | 52 | 179 | 1.0 | 3.0 | 0.00 | 0.01 | 0.01 | 64 | 1025.0 |
| 20260507055524 | 52 | 179 | 1.0 | 3.0 | 0.00 | 0.01 | 0.01 | 64 | 1025.0 |
| 20260507055023 | 52 | 179 | 2.0 | 3.0 | 0.00 | 0.01 | 0.01 | 64 | 1024.9 |
| 20260507054542 | 52 | 179 | 1.0 | 3.0 | 0.00 | 0.01 | 0.01 | 62 | 1024.9 |
| 20260507054024 | 52 | 179 | 2.0 | 3.0 | 0.00 | 0.01 | 0.01 | 61 | 1025.1 |
| 20260507053526 | 52 | 179 | 1.0 | 3.0 | 0.00 | 0.01 | 0.01 | 61 | 1025.0 |
| 20260507053040 | 52 | 179 | 1.0 | 3.0 | 0.00 | 0.01 | 0.01 | 60 | 1025.0 |
| 20260507052523 | 52 | 179 | 2.0 | 3.0 | 0.00 | 0.01 | 0.01 | 62 | 1025.1 |
| 20260507052024 | 52 | 179 | 2.0 | 3.0 | 0.00 | 0.01 | 0.01 | 62 | 1025.2 |
| 20260507051545 | 52 | 179 | 1.0 | 3.0 | 0.00 | 0.01 | 0.01 | 62 | 1025.0 |
| 20260507051025 | 52 | 179 | 2.0 | 3.0 | 0.00 | 0.01 | 0.01 | 62 | 1025.0 |
| 20260507050526 | 52 | 179 | 1.0 | 3.0 | 0.00 | 0.01 | 0.01 | 62 | 1025.1 |
| 20260507050046 | 53 | 179 | 1.0 | 3.0 | 0.00 | 0.01 | 0.01 | 61 | 1025.1 |
| 20260507045525 | 53 | 179 | 1.0 | 3.0 | 0.00 | 0.01 | 0.01 | 60 | 1025.1 |
| 20260507045025 | 53 | 179 | 0.0 | 3.0 | 0.00 | 0.01 | 0.01 | 59 | 1025.0 |
| 20260507044543 | 53 | 179 | 2.0 | 3.0 | 0.00 | 0.01 | 0.01 | 63 | 1024.9 |
| 20260507044025 | 53 | 179 | 1.0 | 4.0 | 0.00 | 0.01 | 0.01 | 62 | 1024.9 |
| 20260507043525 | 53 | 179 | 2.0 | 4.0 | 0.00 | 0.01 | 0.01 | 63 | 1024.8 |
| 20260507043038 | 54 | 179 | 1.0 | 4.0 | 0.00 | 0.01 | 0.01 | 63 | 1024.8 |
| 20260507042524 | 54 | 179 | 2.0 | 4.0 | 0.00 | 0.01 | 0.01 | 64 | 1024.8 |
| 20260507042024 | 54 | 179 | 2.0 | 3.0 | 0.00 | 0.01 | 0.01 | 63 | 1024.7 |
| 20260507041545 | 54 | 179 | 1.0 | 3.0 | 0.00 | 0.01 | 0.01 | 64 | 1024.7 |
| 20260507041026 | 54 | 179 | 0.0 | 3.0 | 0.00 | 0.01 | 0.01 | 65 | 1024.6 |
| 20260507040524 | 54 | 179 | 1.0 | 3.0 | 0.00 | 0.01 | 0.01 | 65 | 1024.6 |
| 20260507040044 | 54 | 179 | 1.0 | 3.0 | 0.00 | 0.01 | 0.01 | 65 | 1024.5 |
| 20260507035526 | 54 | 179 | 2.0 | 3.0 | 0.00 | 0.01 | 0.01 | 65 | 1024.4 |
| 20260507035026 | 54 | 179 | 2.0 | 3.0 | 0.00 | 0.01 | 0.01 | 65 | 1024.4 |
| 20260507034543 | 54 | 179 | 1.0 | 3.0 | 0.00 | 0.01 | 0.01 | 61 | 1024.4 |
| 20260507034026 | 53 | 179 | 1.0 | 4.0 | 0.00 | 0.01 | 0.01 | 59 | 1024.4 |
| 20260507033528 | 54 | 179 | 2.0 | 4.0 | 0.00 | 0.01 | 0.01 | 58 | 1024.4 |
| 20260507033039 | 54 | 179 | 2.0 | 4.0 | 0.00 | 0.01 | 0.01 | 56 | 1024.3 |
| 20260507032524 | 54 | 179 | 1.0 | 3.0 | 0.00 | 0.01 | 0.01 | 53 | 1024.2 |
| 20260507032024 | 54 | 179 | 1.0 | 3.0 | 0.00 | 0.01 | 0.01 | 51 | 1024.2 |
| 20260507031545 | 55 | 179 | 1.0 | 3.0 | 0.00 | 0.01 | 0.01 | 49 | 1024.1 |
| 20260507031026 | 55 | 179 | 2.0 | 3.0 | 0.00 | 0.01 | 0.01 | 49 | 1024.0 |
| 20260507030526 | 55 | 179 | 2.0 | 4.0 | 0.00 | 0.01 | 0.01 | 49 | 1024.0 |
| 20260507030044 | 55 | 179 | 1.0 | 4.0 | 0.00 | 0.01 | 0.01 | 48 | 1024.0 |
| 20260507025525 | 55 | 179 | 2.0 | 4.0 | 0.00 | 0.01 | 0.01 | 47 | 1023.8 |
| 20260507025025 | 55 | 179 | 2.0 | 3.0 | 0.00 | 0.01 | 0.01 | 48 | 1023.8 |
| 20260507024541 | 55 | 179 | 1.0 | 3.0 | 0.00 | 0.01 | 0.01 | 47 | 1023.8 |
| 20260507024024 | 56 | 179 | 1.0 | 3.0 | 0.00 | 0.01 | 0.01 | 50 | 1023.8 |
| 20260507023526 | 56 | 179 | 1.0 | 3.0 | 0.00 | 0.01 | 0.01 | 49 | 1023.8 |
| 20260507023038 | 57 | 179 | 2.0 | 4.0 | 0.00 | 0.01 | 0.01 | 48 | 1023.7 |
| 20260507022525 | 57 | 179 | 2.0 | 4.0 | 0.00 | 0.01 | 0.01 | 48 | 1023.7 |
| 20260507022026 | 58 | 179 | 2.0 | 4.0 | 0.00 | 0.01 | 0.01 | 47 | 1023.6 |
| 20260507021544 | 58 | 179 | 2.0 | 3.0 | 0.00 | 0.01 | 0.01 | 45 | 1023.6 |
| 20260507021027 | 59 | 179 | 1.0 | 3.0 | 0.00 | 0.01 | 0.01 | 46 | 1023.5 |
| 20260507020526 | 59 | 179 | 1.0 | 2.0 | 0.00 | 0.01 | 0.01 | 46 | 1023.5 |
| 20260507020047 | 59 | 179 | 1.0 | 2.0 | 0.00 | 0.01 | 0.01 | 46 | 1023.6 |
| 20260507015526 | 60 | 179 | 1.0 | 2.0 | 0.00 | 0.01 | 0.01 | 47 | 1023.6 |
| 20260507015024 | 60 | 179 | 1.0 | 2.0 | 0.00 | 0.01 | 0.01 | 47 | 1023.6 |
| 20260507014549 | 60 | 179 | 0.0 | 2.0 | 0.00 | 0.01 | 0.01 | 39 | 1023.6 |
| 20260507014026 | 60 | 0 | 0.0 | 1.0 | 0.00 | 0.01 | 0.01 | 37 | 1023.6 |
| 20260507013525 | 60 | 0 | 0.0 | 1.0 | 0.00 | 0.01 | 0.01 | 36 | 1023.5 |
| 20260507013050 | 60 | 179 | 0.0 | 1.0 | 0.00 | 0.01 | 0.01 | 34 | 1023.5 |
| 20260507012524 | 60 | 0 | 0.0 | 1.0 | 0.00 | 0.01 | 0.01 | 35 | 1023.5 |
| 20260507012024 | 60 | 0 | 0.0 | 1.0 | 0.00 | 0.01 | 0.01 | 35 | 1023.5 |
| 20260507011538 | 60 | 0 | 0.0 | 2.0 | 0.00 | 0.01 | 0.01 | 34 | 1023.6 |
| 20260507011023 | 60 | 0 | 0.0 | 2.0 | 0.00 | 0.01 | 0.01 | 34 | 1023.6 |
| 20260507010530 | 60 | 179 | 0.0 | 2.0 | 0.00 | 0.01 | 0.01 | 36 | 1023.5 |
| 20260507010055 | 60 | 179 | 0.0 | 3.0 | 0.00 | 0.01 | 0.01 | 39 | 1023.6 |
| 20260507005528 | 60 | 179 | 1.0 | 3.0 | 0.00 | 0.01 | 0.01 | 45 | 1023.6 |
| 20260507005026 | 60 | 179 | 1.0 | 3.0 | 0.00 | 0.01 | 0.01 | 42 | 1023.7 |
| 20260507004546 | 60 | 179 | 1.0 | 3.0 | 0.00 | 0.01 | 0.01 | 40 | 1023.6 |
| 20260507004028 | 60 | 0 | 0.0 | 3.0 | 0.00 | 0.01 | 0.01 | 44 | 1023.7 |
| 20260507003527 | 59 | 179 | 0.0 | 4.0 | 0.00 | 0.01 | 0.01 | 49 | 1023.7 |
| 20260507003045 | 60 | 179 | 2.0 | 4.0 | 0.00 | 0.01 | 0.01 | 49 | 1023.6 |
| 20260507002526 | 60 | 179 | 2.0 | 4.0 | 0.00 | 0.01 | 0.01 | 54 | 1023.6 |
| 20260507002028 | 61 | 179 | 2.0 | 4.0 | 0.00 | 0.01 | 0.01 | 53 | 1023.6 |
| 20260507001539 | 61 | 179 | 1.0 | 4.0 | 0.00 | 0.01 | 0.01 | 50 | 1023.5 |
| 20260507001027 | 61 | 179 | 2.0 | 4.0 | 0.00 | 0.01 | 0.01 | 47 | 1023.6 |
| 20260507000529 | 61 | 179 | 2.0 | 4.0 | 0.00 | 0.01 | 0.01 | 48 | 1023.6 |
| 20260507000047 | 61 | 179 | 1.0 | 4.0 | 0.00 | 0.01 | 0.01 | 49 | 1023.5 |
| 20260506235528 | 61 | 179 | 3.0 | 4.0 | 0.00 | 0.01 | 0.01 | 51 | 1023.5 |
| 20260506235027 | 62 | 180 | 1.0 | 4.0 | 0.00 | 0.01 | 0.01 | 52 | 1023.6 |
| 20260506234545 | 62 | 180 | 2.0 | 4.0 | 0.00 | 0.01 | 0.01 | 52 | 1023.5 |
| 20260506234028 | 62 | 180 | 1.0 | 4.0 | 0.00 | 0.01 | 0.01 | 49 | 1023.5 |
| 20260506233526 | 62 | 180 | 1.0 | 4.0 | 0.00 | 0.01 | 0.01 | 49 | 1023.6 |
| 20260506233059 | 62 | 180 | 2.0 | 4.0 | 0.00 | 0.01 | 0.01 | 42 | 1023.6 |
| 20260506232529 | 63 | 180 | 2.0 | 5.0 | 0.00 | 0.01 | 0.01 | 47 | 1023.6 |
| 20260506232025 | 64 | 180 | 2.0 | 7.0 | 0.00 | 0.01 | 0.01 | 47 | 1023.6 |
| 20260506231543 | 64 | 178 | 3.0 | 7.0 | 0.00 | 0.01 | 0.01 | 35 | 1023.6 |
| 20260506231027 | 64 | 175 | 2.0 | 7.0 | 0.00 | 0.01 | 0.01 | 32 | 1023.6 |
| 20260506230525 | 64 | 186 | 2.0 | 6.0 | 0.00 | 0.01 | 0.01 | 34 | 1023.7 |
| 20260506230042 | 65 | 188 | 3.0 | 6.0 | 0.00 | 0.01 | 0.01 | 33 | 1023.7 |
| 20260506225531 | 65 | 179 | 1.0 | 5.0 | 0.00 | 0.01 | 0.01 | 36 | 1023.8 |
| 20260506225028 | 65 | 180 | 2.0 | 6.0 | 0.00 | 0.01 | 0.01 | 33 | 1023.8 |
| 20260506224545 | 64 | 184 | 1.0 | 6.0 | 0.00 | 0.01 | 0.01 | 34 | 1023.8 |
| 20260506224028 | 64 | 161 | 3.0 | 6.0 | 0.00 | 0.01 | 0.01 | 32 | 1023.9 |
| 20260506223528 | 64 | 158 | 2.0 | 6.0 | 0.00 | 0.01 | 0.01 | 36 | 1023.8 |
| 20260506223047 | 63 | 157 | 2.0 | 7.0 | 0.00 | 0.01 | 0.01 | 38 | 1023.9 |
| 20260506222526 | 63 | 183 | 2.0 | 7.0 | 0.00 | 0.01 | 0.01 | 35 | 1023.9 |
| 20260506222030 | 64 | 186 | 4.0 | 7.0 | 0.00 | 0.01 | 0.01 | 33 | 1024.1 |
| 20260506221548 | 64 | 145 | 3.0 | 7.0 | 0.00 | 0.01 | 0.01 | 30 | 1024.1 |
| 20260506221026 | 65 | 198 | 3.0 | 7.0 | 0.00 | 0.01 | 0.01 | 33 | 1024.2 |
| 20260506220527 | 65 | 187 | 3.0 | 6.0 | 0.00 | 0.01 | 0.01 | 31 | 1024.2 |
| 20260506220046 | 66 | 204 | 2.0 | 6.0 | 0.00 | 0.01 | 0.01 | 34 | 1024.2 |
| 20260506215527 | 65 | 177 | 1.0 | 7.0 | 0.00 | 0.01 | 0.01 | 33 | 1024.3 |
| 20260506215027 | 65 | 182 | 2.0 | 7.0 | 0.00 | 0.01 | 0.01 | 38 | 1024.3 |
| 20260506214539 | 65 | 202 | 1.0 | 5.0 | 0.00 | 0.01 | 0.01 | 37 | 1024.4 |
| 20260506214023 | 64 | 202 | 3.0 | 7.0 | 0.00 | 0.01 | 0.01 | 34 | 1024.3 |
| 20260506213528 | 63 | 189 | 2.0 | 8.0 | 0.00 | 0.01 | 0.01 | 37 | 1024.3 |
| 20260506213046 | 63 | 188 | 3.0 | 8.0 | 0.00 | 0.01 | 0.01 | 42 | 1024.3 |
| 20260506212528 | 62 | 150 | 2.0 | 7.0 | 0.00 | 0.01 | 0.01 | 39 | 1024.3 |
| 20260506212028 | 63 | 175 | 2.0 | 7.0 | 0.00 | 0.01 | 0.01 | 43 | 1024.3 |
| 20260506211544 | 63 | 186 | 4.0 | 7.0 | 0.00 | 0.01 | 0.01 | 44 | 1024.4 |
| 20260506211026 | 62 | 193 | 3.0 | 6.0 | 0.00 | 0.01 | 0.01 | 46 | 1024.4 |
| 20260506210527 | 61 | 197 | 2.0 | 7.0 | 0.00 | 0.01 | 0.01 | 50 | 1024.4 |
| 20260506210047 | 61 | 186 | 2.0 | 7.0 | 0.00 | 0.01 | 0.01 | 49 | 1024.4 |
| 20260506205527 | 61 | 185 | 3.0 | 7.0 | 0.00 | 0.01 | 0.01 | 49 | 1024.5 |
| 20260506205027 | 62 | 175 | 3.0 | 7.0 | 0.00 | 0.01 | 0.01 | 45 | 1024.6 |
| 20260506204541 | 62 | 185 | 3.0 | 6.0 | 0.00 | 0.01 | 0.01 | 45 | 1024.6 |
| 20260506204027 | 61 | 188 | 3.0 | 6.0 | 0.00 | 0.01 | 0.01 | 45 | 1024.5 |
| 20260506203529 | 61 | 187 | 2.0 | 7.0 | 0.00 | 0.01 | 0.01 | 50 | 1024.5 |
| 20260506203040 | 61 | 169 | 3.0 | 7.0 | 0.00 | 0.01 | 0.01 | 48 | 1024.5 |
| 20260506202528 | 61 | 187 | 2.0 | 6.0 | 0.00 | 0.01 | 0.01 | 51 | 1024.5 |
| 20260506202025 | 61 | 180 | 2.0 | 6.0 | 0.00 | 0.01 | 0.01 | 53 | 1024.5 |
| 20260506201545 | 60 | 181 | 3.0 | 6.0 | 0.00 | 0.01 | 0.01 | 53 | 1024.6 |
| 20260506201027 | 61 | 169 | 4.0 | 6.0 | 0.00 | 0.01 | 0.01 | 55 | 1024.6 |
| 20260506200526 | 61 | 178 | 2.0 | 6.0 | 0.00 | 0.01 | 0.01 | 54 | 1024.6 |
| 20260506200047 | 60 | 184 | 2.0 | 4.0 | 0.00 | 0.01 | 0.01 | 56 | 1024.6 |
| 20260506195527 | 59 | 181 | 1.0 | 5.0 | 0.00 | 0.01 | 0.01 | 57 | 1024.6 |
| 20260506195029 | 58 | 181 | 1.0 | 7.0 | 0.00 | 0.01 | 0.01 | 62 | 1024.6 |
| 20260506194547 | 58 | 181 | 3.0 | 8.0 | 0.00 | 0.01 | 0.01 | 60 | 1024.7 |
| 20260506194027 | 57 | 174 | 3.0 | 8.0 | 0.00 | 0.01 | 0.01 | 63 | 1024.8 |
| 20260506193527 | 57 | 163 | 4.0 | 8.0 | 0.00 | 0.01 | 0.01 | 63 | 1024.7 |
| 20260506193042 | 57 | 167 | 2.0 | 6.0 | 0.00 | 0.01 | 0.01 | 65 | 1024.6 |
| 20260506192525 | 57 | 178 | 2.0 | 6.0 | 0.00 | 0.01 | 0.01 | 64 | 1024.7 |
| 20260506192027 | 57 | 173 | 2.0 | 6.0 | 0.00 | 0.01 | 0.01 | 63 | 1024.7 |
| 20260506191548 | 57 | 189 | 3.0 | 7.0 | 0.00 | 0.01 | 0.01 | 63 | 1024.7 |
| 20260506191025 | 58 | 196 | 3.0 | 7.0 | 0.00 | 0.01 | 0.01 | 60 | 1024.7 |
| 20260506190525 | 58 | 176 | 3.0 | 6.0 | 0.00 | 0.01 | 0.01 | 55 | 1024.7 |
| 20260506190047 | 58 | 192 | 2.0 | 6.0 | 0.00 | 0.01 | 0.01 | 61 | 1024.6 |
| 20260506185525 | 58 | 193 | 3.0 | 6.0 | 0.00 | 0.01 | 0.01 | 59 | 1024.6 |
| 20260506185025 | 58 | 169 | 2.0 | 6.0 | 0.00 | 0.01 | 0.01 | 58 | 1024.6 |
| 20260506184542 | 59 | 164 | 2.0 | 6.0 | 0.00 | 0.01 | 0.01 | 55 | 1024.7 |
| 20260506184027 | 58 | 181 | 2.0 | 6.0 | 0.00 | 0.01 | 0.01 | 59 | 1024.6 |
| 20260506183527 | 57 | 179 | 1.0 | 5.0 | 0.00 | 0.01 | 0.01 | 58 | 1024.7 |
| 20260506183043 | 57 | 180 | 2.0 | 5.0 | 0.00 | 0.01 | 0.01 | 56 | 1024.6 |
| 20260506182525 | 57 | 180 | 2.0 | 5.0 | 0.00 | 0.01 | 0.01 | 58 | 1024.6 |
| 20260506182026 | 57 | 180 | 1.0 | 7.0 | 0.00 | 0.01 | 0.01 | 59 | 1024.7 |
| 20260506181545 | 57 | 177 | 2.0 | 7.0 | 0.00 | 0.01 | 0.01 | 61 | 1024.5 |
| 20260506181027 | 56 | 192 | 2.0 | 7.0 | 0.00 | 0.01 | 0.01 | 63 | 1024.6 |
| 20260506180525 | 56 | 198 | 3.0 | 7.0 | 0.00 | 0.01 | 0.01 | 62 | 1024.5 |
| 20260506180042 | 56 | 184 | 3.0 | 6.0 | 0.00 | 0.01 | 0.01 | 64 | 1024.5 |
| 20260506175526 | 55 | 186 | 2.0 | 6.0 | 0.00 | 0.02 | 0.01 | 65 | 1024.4 |
| 20260506175024 | 55 | 142 | 2.0 | 6.0 | 0.00 | 0.02 | 0.01 | 65 | 1024.5 |
| 20260506174547 | 54 | 190 | 4.0 | 6.0 | 0.00 | 0.02 | 0.01 | 69 | 1024.4 |
| 20260506174027 | 55 | 184 | 0.0 | 0.0 | 0.00 | 0.02 | 0.01 | 68 | 1024.4 |
| 20260506173528 | 54 | 0 | 0.0 | 0.0 | 0.00 | 0.02 | 0.01 | 72 | 1024.4 |
| 20260506173104 | 54 | 0 | 0.0 | 0.0 | 0.00 | 0.02 | 0.01 | 70 | 1024.4 |
| 20260506172527 | 54 | 0 | 0.0 | 0.0 | 0.00 | 0.02 | 0.01 | 72 | 1024.4 |
| 20260506172025 | 54 | 0 | 0.0 | 0.0 | 0.00 | 0.02 | 0.01 | 71 | 1024.3 |
| 20260506171550 | 54 | 0 | 0.0 | 0.0 | 0.00 | 0.02 | 0.01 | 71 | 1024.3 |
| 20260506171027 | 53 | 0 | 0.0 | 0.0 | 0.00 | 0.02 | 0.01 | 73 | 1024.3 |
| 20260506170526 | 53 | 0 | 0.0 | 0.0 | 0.00 | 0.02 | 0.01 | 73 | 1024.2 |
| 20260506170042 | 52 | 0 | 0.0 | 0.0 | 0.00 | 0.02 | 0.01 | 75 | 1024.4 |
| 20260506165525 | 52 | 0 | 0.0 | 0.0 | 0.00 | 0.06 | 0.01 | 76 | 1024.3 |
| 20260506165025 | 52 | 0 | 0.0 | 0.0 | 0.00 | 0.06 | 0.01 | 75 | 1024.4 |
| 20260506164558 | 51 | 0 | 0.0 | 0.0 | 0.00 | 0.06 | 0.01 | 78 | 1024.4 |
| 20260506164024 | 50 | 0 | 0.0 | 0.0 | 0.00 | 0.06 | 0.01 | 80 | 1024.2 |
| 20260506163525 | 50 | 0 | 0.0 | 0.0 | 0.00 | 0.06 | 0.01 | 80 | 1024.3 |
| 20260506163045 | 49 | 0 | 0.0 | 0.0 | 0.00 | 0.06 | 0.01 | 81 | 1024.3 |
| 20260506162528 | 49 | 0 | 0.0 | 0.0 | 0.00 | 0.06 | 0.01 | 83 | 1024.3 |
| 20260506162027 | 48 | 0 | 0.0 | 0.0 | 0.00 | 0.06 | 0.01 | 83 | 1024.2 |
| 20260506161548 | 48 | 0 | 0.0 | 0.0 | 0.00 | 0.06 | 0.01 | 83 | 1024.2 |
| 20260506161030 | 49 | 0 | 0.0 | 0.0 | 0.00 | 0.06 | 0.01 | 83 | 1024.2 |
| 20260506160528 | 48 | 0 | 0.0 | 0.0 | 0.00 | 0.06 | 0.01 | 83 | 1024.2 |
| 20260506160059 | 48 | 0 | 0.0 | 0.0 | 0.00 | 0.06 | 0.01 | 83 | 1024.2 |
| 20260506155525 | 49 | 0 | 0.0 | 0.0 | 0.00 | 0.09 | 0.01 | 83 | 1024.1 |
| 20260506155025 | 49 | 0 | 0.0 | 0.0 | 0.00 | 0.09 | 0.01 | 81 | 1024.1 |
| 20260506154550 | 50 | 0 | 0.0 | 0.0 | 0.00 | 0.09 | 0.01 | 81 | 1024.1 |
| 20260506154025 | 50 | 0 | 0.0 | 0.0 | 0.00 | 0.09 | 0.01 | 81 | 1024.0 |
| 20260506153526 | 49 | 0 | 0.0 | 0.0 | 0.00 | 0.09 | 0.01 | 82 | 1024.0 |
| 20260506153040 | 49 | 0 | 0.0 | 0.0 | 0.00 | 0.09 | 0.01 | 81 | 1024.0 |
| 20260506152525 | 49 | 0 | 0.0 | 0.0 | 0.00 | 0.09 | 0.01 | 81 | 1023.9 |
| 20260506152026 | 49 | 0 | 0.0 | 0.0 | 0.00 | 0.09 | 0.01 | 82 | 1023.9 |
| 20260506151545 | 49 | 0 | 0.0 | 0.0 | 0.00 | 0.09 | 0.01 | 81 | 1023.9 |
| 20260506151025 | 49 | 0 | 0.0 | 0.0 | 0.00 | 0.09 | 0.01 | 81 | 1023.7 |